"Sample Date","Sample Time","Sample Value","Units","Flow Rate","Sample Interval","Number Channels","Micron Size 0","Counts/Channel 0","Micron Size 1","Counts/Channel 1","Micron Size 2","Counts/Channel 2","Micron Size 3","Counts/Channel 3","Micron Size 4","Counts/Channel 4","Micron Size 5","Counts/Channel 5","Micron Size 6","Counts/Channel 6","Micron Size 7","Counts/Channel 7","Micron Size 8","Counts/Channel 8","Micron Size 9","Counts/Channel 9","Micron Size 10","Counts/Channel 10","Micron Size 11","Counts/Channel 11","Micron Size 12","Counts/Channel 12","Micron Size 13","Counts/Channel 13","Micron Size 14","Counts/Channel 14","Micron Size 15","Counts/Channel 15","Micron Size 16","Counts/Channel 16","Micron Size 17","Counts/Channel 17","Micron Size 18","Counts/Channel 18","Micron Size 19","Counts/Channel 19","Micron Size 20","Counts/Channel 20","Micron Size 21","Counts/Channel 21","Micron Size 22","Counts/Channel 22","Micron Size 23","Counts/Channel 23","Micron Size 24","Counts/Channel 24","Micron Size 25","Counts/Channel 25","Micron Size 26","Counts/Channel 26","Micron Size 27","Counts/Channel 27","Micron Size 28","Counts/Channel 28","Micron Size 29","Counts/Channel 29","Micron Size 30","Counts/Channel 30","Micron Size 31","Counts/Channel 31"
"03/08/08","21:00:02",9955.000,"cc",28296.932,6.00,6,0.100,9083.000,0.200,857.000,0.300,15.000,0.500,0,1.000,0,5.000,0
"03/08/08","21:00:08",9931.000,"cc",28296.305,6.00,6,0.100,8942.000,0.200,972.000,0.300,16.000,0.500,1.000,1.000,0,5.000,0
"03/08/08","21:00:14",9672.000,"cc",28281.709,6.00,6,0.100,8758.000,0.200,884.000,0.300,28.000,0.500,1.000,1.000,1.000,5.000,0
"03/08/08","21:00:20",9842.000,"cc",28456.055,6.00,6,0.100,8877.000,0.200,933.000,0.300,29.000,0.500,3.000,1.000,0,5.000,0
"03/08/08","21:00:26",9623.000,"cc",28373.652,6.00,6,0.100,8673.000,0.200,914.000,0.300,34.000,0.500,2.000,1.000,0,5.000,0
"03/08/08","21:00:32",9882.000,"cc",28277.246,6.00,6,0.100,8816.000,0.200,1027.000,0.300,37.000,0.500,2.000,1.000,0,5.000,0
"03/08/08","21:00:38",9761.000,"cc",28299.145,6.00,6,0.100,8769.000,0.200,955.000,0.300,34.000,0.500,2.000,1.000,1.000,5.000,0
"03/08/08","21:00:44",9878.000,"cc",28303.359,6.00,6,0.100,8873.000,0.200,960.000,0.300,42.000,0.500,3.000,1.000,0,5.000,0
"03/08/08","21:00:50",10488.000,"cc",28228.209,6.00,6,0.100,9158.000,0.200,1149.000,0.300,149.000,0.500,27.000,1.000,5.000,5.000,0
"03/08/08","21:00:56",9979.000,"cc",28343.865,6.00,6,0.100,8932.000,0.200,983.000,0.300,53.000,0.500,9.000,1.000,2.000,5.000,0
"03/08/08","21:01:02",9989.000,"cc",28345.375,6.00,6,0.100,8922.000,0.200,1025.000,0.300,37.000,0.500,5.000,1.000,0,5.000,0
"03/08/08","21:01:08",9776.000,"cc",28287.523,6.00,6,0.100,8793.000,0.200,950.000,0.300,30.000,0.500,2.000,1.000,1.000,5.000,0
"03/08/08","21:01:14",9759.000,"cc",28403.031,6.00,6,0.100,8775.000,0.200,944.000,0.300,37.000,0.500,3.000,1.000,0,5.000,0
"03/08/08","21:01:20",9679.000,"cc",28392.959,6.00,6,0.100,8722.000,0.200,922.000,0.300,33.000,0.500,2.000,1.000,0,5.000,0
"03/08/08","21:01:26",9371.000,"cc",28310.797,6.00,6,0.100,8435.000,0.200,897.000,0.300,35.000,0.500,4.000,1.000,0,5.000,0
"03/08/08","21:01:32",9866.000,"cc",28304.215,6.00,6,0.100,8838.000,0.200,987.000,0.300,34.000,0.500,6.000,1.000,1.000,5.000,0
"03/08/08","21:01:38",9504.000,"cc",28360.742,6.00,6,0.100,8560.000,0.200,905.000,0.300,35.000,0.500,4.000,1.000,0,5.000,0
"03/08/08","21:01:44",9648.000,"cc",28307.186,6.00,6,0.100,8605.000,0.200,1002.000,0.300,38.000,0.500,2.000,1.000,1.000,5.000,0
"03/08/08","21:01:50",9310.000,"cc",28344.141,6.00,6,0.100,8365.000,0.200,916.000,0.300,25.000,0.500,4.000,1.000,0,5.000,0
"03/08/08","21:01:56",9246.000,"cc",28303.981,6.00,6,0.100,8321.000,0.200,905.000,0.300,18.000,0.500,2.000,1.000,0,5.000,0
"03/08/08","21:02:02",9582.000,"cc",28267.787,6.00,6,0.100,8644.000,0.200,895.000,0.300,36.000,0.500,7.000,1.000,0,5.000,0
"03/08/08","21:02:08",9534.000,"cc",28291.729,6.00,6,0.100,8553.000,0.200,939.000,0.300,36.000,0.500,4.000,1.000,2.000,5.000,0
"03/08/08","21:02:14",9333.000,"cc",28341.459,6.00,6,0.100,8404.000,0.200,904.000,0.300,23.000,0.500,2.000,1.000,0,5.000,0
"03/08/08","21:02:20",9519.000,"cc",28326.104,6.00,6,0.100,8546.000,0.200,940.000,0.300,27.000,0.500,6.000,1.000,0,5.000,0
"03/08/08","21:02:26",9313.000,"cc",28289.770,6.00,6,0.100,8402.000,0.200,878.000,0.300,31.000,0.500,2.000,1.000,0,5.000,0
"03/08/08","21:02:32",9204.000,"cc",28319.457,6.00,6,0.100,8276.000,0.200,884.000,0.300,39.000,0.500,4.000,1.000,1.000,5.000,0
"03/08/08","21:02:38",9252.000,"cc",28312.496,6.00,6,0.100,8365.000,0.200,852.000,0.300,31.000,0.500,3.000,1.000,1.000,5.000,0
"03/08/08","21:02:44",9431.000,"cc",28328.525,6.00,6,0.100,8460.000,0.200,921.000,0.300,44.000,0.500,6.000,1.000,0,5.000,0
"03/08/08","21:02:50",9464.000,"cc",28290.766,6.00,6,0.100,8515.000,0.200,909.000,0.300,36.000,0.500,4.000,1.000,0,5.000,0
"03/08/08","21:02:56",9072.000,"cc",28398.701,6.00,6,0.100,8160.000,0.200,874.000,0.300,33.000,0.500,3.000,1.000,2.000,5.000,0
"03/08/08","21:03:02",9004.000,"cc",28205.463,6.00,6,0.100,8135.000,0.200,843.000,0.300,23.000,0.500,2.000,1.000,1.000,5.000,0
"03/08/08","21:03:08",9265.000,"cc",28372.555,6.00,6,0.100,8375.000,0.200,865.000,0.300,21.000,0.500,3.000,1.000,1.000,5.000,0
"03/08/08","21:03:14",9294.000,"cc",28322.154,6.00,6,0.100,8388.000,0.200,877.000,0.300,24.000,0.500,3.000,1.000,2.000,5.000,0
"03/08/08","21:03:20",9482.000,"cc",28331.619,6.00,6,0.100,8546.000,0.200,894.000,0.300,36.000,0.500,6.000,1.000,0,5.000,0
"03/08/08","21:03:26",9192.000,"cc",28311.367,6.00,6,0.100,8243.000,0.200,919.000,0.300,28.000,0.500,2.000,1.000,0,5.000,0
"03/08/08","21:03:32",9241.000,"cc",28312.205,6.00,6,0.100,8300.000,0.200,900.000,0.300,36.000,0.500,3.000,1.000,2.000,5.000,0
"03/08/08","21:03:38",9280.000,"cc",28383.336,6.00,6,0.100,8379.000,0.200,860.000,0.300,33.000,0.500,6.000,1.000,2.000,5.000,0
"03/08/08","21:03:44",9245.000,"cc",28392.514,6.00,6,0.100,8367.000,0.200,835.000,0.300,39.000,0.500,4.000,1.000,0,5.000,0
"03/08/08","21:03:50",9081.000,"cc",28286.090,6.00,6,0.100,8156.000,0.200,893.000,0.300,27.000,0.500,5.000,1.000,0,5.000,0
"03/08/08","21:03:56",9131.000,"cc",28241.807,6.00,6,0.100,8218.000,0.200,889.000,0.300,20.000,0.500,3.000,1.000,1.000,5.000,0
"03/08/08","21:04:02",9176.000,"cc",28297.908,6.00,6,0.100,8321.000,0.200,826.000,0.300,26.000,0.500,3.000,1.000,0,5.000,0
"03/08/08","21:04:08",8988.000,"cc",28355.084,6.00,6,0.100,8148.000,0.200,809.000,0.300,27.000,0.500,3.000,1.000,1.000,5.000,0
"03/08/08","21:04:14",9257.000,"cc",28309.711,6.00,6,0.100,8353.000,0.200,869.000,0.300,28.000,0.500,7.000,1.000,0,5.000,0
"03/08/08","21:04:20",9116.000,"cc",28260.623,6.00,6,0.100,8224.000,0.200,859.000,0.300,27.000,0.500,6.000,1.000,0,5.000,0
"03/08/08","21:04:26",9192.000,"cc",28399.109,6.00,6,0.100,8354.000,0.200,813.000,0.300,24.000,0.500,1.000,1.000,0,5.000,0
"03/08/08","21:04:32",9246.000,"cc",28272.857,6.00,6,0.100,8325.000,0.200,894.000,0.300,23.000,0.500,2.000,1.000,2.000,5.000,0
"03/08/08","21:04:38",9114.000,"cc",28232.773,6.00,6,0.100,8211.000,0.200,867.000,0.300,33.000,0.500,2.000,1.000,1.000,5.000,0
"03/08/08","21:04:44",9268.000,"cc",28326.191,6.00,6,0.100,8313.000,0.200,918.000,0.300,32.000,0.500,5.000,1.000,0,5.000,0
"03/08/08","21:04:50",9093.000,"cc",28297.426,6.00,6,0.100,8219.000,0.200,841.000,0.300,30.000,0.500,3.000,1.000,0,5.000,0
"03/08/08","21:04:56",9154.000,"cc",28368.500,6.00,6,0.100,8218.000,0.200,902.000,0.300,32.000,0.500,2.000,1.000,0,5.000,0
"03/08/08","21:05:02",9185.000,"cc",28297.191,6.00,6,0.100,8305.000,0.200,849.000,0.300,28.000,0.500,3.000,1.000,0,5.000,0
"03/08/08","21:05:08",9126.000,"cc",28419.910,6.00,6,0.100,8236.000,0.200,863.000,0.300,25.000,0.500,1.000,1.000,1.000,5.000,0
"03/08/08","21:05:14",8891.000,"cc",28192.010,6.00,6,0.100,8029.000,0.200,838.000,0.300,22.000,0.500,2.000,1.000,0,5.000,0
"03/08/08","21:05:20",9262.000,"cc",28313.092,6.00,6,0.100,8369.000,0.200,860.000,0.300,29.000,0.500,4.000,1.000,0,5.000,0
"03/08/08","21:05:26",9061.000,"cc",28307.289,6.00,6,0.100,8201.000,0.200,834.000,0.300,25.000,0.500,1.000,1.000,0,5.000,0
"03/08/08","21:05:32",9146.000,"cc",28370.643,6.00,6,0.100,8285.000,0.200,835.000,0.300,23.000,0.500,3.000,1.000,0,5.000,0
"03/08/08","21:05:38",9276.000,"cc",28337.871,6.00,6,0.100,8377.000,0.200,872.000,0.300,25.000,0.500,2.000,1.000,0,5.000,0
"03/08/08","21:05:44",9088.000,"cc",28332.537,6.00,6,0.100,8250.000,0.200,804.000,0.300,29.000,0.500,5.000,1.000,0,5.000,0
"03/08/08","21:05:50",9171.000,"cc",28289.490,6.00,6,0.100,8300.000,0.200,849.000,0.300,19.000,0.500,3.000,1.000,0,5.000,0
"03/08/08","21:05:56",9175.000,"cc",28302.045,6.00,6,0.100,8304.000,0.200,845.000,0.300,26.000,0.500,0,1.000,0,5.000,0
"03/08/08","21:06:02",9010.000,"cc",28405.258,6.00,6,0.100,8123.000,0.200,858.000,0.300,27.000,0.500,2.000,1.000,0,5.000,0
"03/08/08","21:06:08",9104.000,"cc",28295.297,6.00,6,0.100,8213.000,0.200,865.000,0.300,25.000,0.500,1.000,1.000,0,5.000,0
"03/08/08","21:06:14",9041.000,"cc",28233.924,6.00,6,0.100,8198.000,0.200,816.000,0.300,26.000,0.500,1.000,1.000,0,5.000,0
"03/08/08","21:06:20",9393.000,"cc",28349.645,6.00,6,0.100,8490.000,0.200,879.000,0.300,22.000,0.500,2.000,1.000,0,5.000,0
"03/08/08","21:06:26",9163.000,"cc",28306.109,6.00,6,0.100,8274.000,0.200,859.000,0.300,30.000,0.500,0,1.000,0,5.000,0
"03/08/08","21:06:32",8975.000,"cc",28361.502,6.00,6,0.100,8075.000,0.200,863.000,0.300,30.000,0.500,6.000,1.000,1.000,5.000,0
"03/08/08","21:06:38",8893.000,"cc",28271.783,6.00,6,0.100,8089.000,0.200,780.000,0.300,19.000,0.500,5.000,1.000,0,5.000,0
"03/08/08","21:06:44",9379.000,"cc",28324.688,6.00,6,0.100,8499.000,0.200,855.000,0.300,23.000,0.500,2.000,1.000,0,5.000,0
"03/08/08","21:06:50",9240.000,"cc",28283.334,6.00,6,0.100,8422.000,0.200,804.000,0.300,11.000,0.500,3.000,1.000,0,5.000,0
"03/08/08","21:06:56",9265.000,"cc",28346.293,6.00,6,0.100,8387.000,0.200,846.000,0.300,30.000,0.500,2.000,1.000,0,5.000,0
"03/08/08","21:07:02",9086.000,"cc",28153.170,6.00,6,0.100,8241.000,0.200,812.000,0.300,29.000,0.500,4.000,1.000,0,5.000,0
"03/08/08","21:07:08",9135.000,"cc",28446.010,6.00,6,0.100,8298.000,0.200,796.000,0.300,35.000,0.500,5.000,1.000,1.000,5.000,0
"03/08/08","21:07:14",9079.000,"cc",28315.762,6.00,6,0.100,8306.000,0.200,757.000,0.300,13.000,0.500,3.000,1.000,0,5.000,0
"03/08/08","21:07:20",9252.000,"cc",28265.307,6.00,6,0.100,8397.000,0.200,826.000,0.300,25.000,0.500,4.000,1.000,0,5.000,0
"03/08/08","21:07:26",9071.000,"cc",28255.063,6.00,6,0.100,8162.000,0.200,884.000,0.300,23.000,0.500,2.000,1.000,0,5.000,0
"03/08/08","21:07:32",9437.000,"cc",28338.309,6.00,6,0.100,8565.000,0.200,857.000,0.300,12.000,0.500,3.000,1.000,0,5.000,0
"03/08/08","21:07:38",9214.000,"cc",28441.832,6.00,6,0.100,8301.000,0.200,893.000,0.300,17.000,0.500,3.000,1.000,0,5.000,0
"03/08/08","21:07:44",9101.000,"cc",28265.613,6.00,6,0.100,8279.000,0.200,808.000,0.300,12.000,0.500,2.000,1.000,0,5.000,0
"03/08/08","21:07:50",9178.000,"cc",28299.713,6.00,6,0.100,8297.000,0.200,858.000,0.300,23.000,0.500,0,1.000,0,5.000,0
"03/08/08","21:07:56",9282.000,"cc",28291.150,6.00,6,0.100,8442.000,0.200,822.000,0.300,17.000,0.500,1.000,1.000,0,5.000,0
"03/08/08","21:08:02",9022.000,"cc",28307.690,6.00,6,0.100,8181.000,0.200,824.000,0.300,14.000,0.500,3.000,1.000,0,5.000,0
"03/08/08","21:08:08",9302.000,"cc",28400.811,6.00,6,0.100,8427.000,0.200,852.000,0.300,21.000,0.500,2.000,1.000,0,5.000,0
"03/08/08","21:08:14",9204.000,"cc",28285.924,6.00,6,0.100,8332.000,0.200,842.000,0.300,27.000,0.500,3.000,1.000,0,5.000,0
"03/08/08","21:08:20",9293.000,"cc",28282.656,6.00,6,0.100,8407.000,0.200,863.000,0.300,20.000,0.500,3.000,1.000,0,5.000,0
"03/08/08","21:08:26",9010.000,"cc",28275.494,6.00,6,0.100,8181.000,0.200,808.000,0.300,19.000,0.500,2.000,1.000,0,5.000,0
"03/08/08","21:08:32",9399.000,"cc",28410.133,6.00,6,0.100,8508.000,0.200,867.000,0.300,24.000,0.500,0,1.000,0,5.000,0
"03/08/08","21:08:38",9149.000,"cc",28307.223,6.00,6,0.100,8289.000,0.200,837.000,0.300,21.000,0.500,2.000,1.000,0,5.000,0
"03/08/08","21:08:44",9145.000,"cc",28313.623,6.00,6,0.100,8278.000,0.200,853.000,0.300,10.000,0.500,4.000,1.000,0,5.000,0
"03/08/08","21:08:50",9419.000,"cc",28315.566,6.00,6,0.100,8553.000,0.200,843.000,0.300,19.000,0.500,2.000,1.000,2.000,5.000,0
"03/08/08","21:08:56",8928.000,"cc",28323.428,6.00,6,0.100,8121.000,0.200,778.000,0.300,28.000,0.500,1.000,1.000,0,5.000,0
"03/08/08","21:09:02",9185.000,"cc",28383.715,6.00,6,0.100,8355.000,0.200,810.000,0.300,19.000,0.500,1.000,1.000,0,5.000,0
"03/08/08","21:09:08",9104.000,"cc",28288.822,6.00,6,0.100,8239.000,0.200,848.000,0.300,13.000,0.500,3.000,1.000,1.000,5.000,0
"03/08/08","21:09:14",9397.000,"cc",28285.672,6.00,6,0.100,8520.000,0.200,855.000,0.300,19.000,0.500,2.000,1.000,1.000,5.000,0
"03/08/08","21:09:20",9195.000,"cc",28196.352,6.00,6,0.100,8380.000,0.200,803.000,0.300,10.000,0.500,1.000,1.000,1.000,5.000,0
"03/08/08","21:09:26",9262.000,"cc",28387.273,6.00,6,0.100,8416.000,0.200,822.000,0.300,22.000,0.500,2.000,1.000,0,5.000,0
"03/08/08","21:09:32",9130.000,"cc",28310.234,6.00,6,0.100,8268.000,0.200,841.000,0.300,17.000,0.500,4.000,1.000,0,5.000,0
"03/08/08","21:09:38",9018.000,"cc",28217.201,6.00,6,0.100,8245.000,0.200,744.000,0.300,27.000,0.500,1.000,1.000,1.000,5.000,0
"03/08/08","21:09:44",9285.000,"cc",28467.695,6.00,6,0.100,8416.000,0.200,841.000,0.300,25.000,0.500,2.000,1.000,1.000,5.000,0
"03/08/08","21:09:50",9436.000,"cc",28276.400,6.00,6,0.100,8556.000,0.200,859.000,0.300,21.000,0.500,0,1.000,0,5.000,0
"03/08/08","21:09:56",9294.000,"cc",28341.660,6.00,6,0.100,8417.000,0.200,854.000,0.300,21.000,0.500,2.000,1.000,0,5.000,0
"03/08/08","21:10:02",9386.000,"cc",28315.547,6.00,6,0.100,8514.000,0.200,852.000,0.300,17.000,0.500,3.000,1.000,0,5.000,0
"03/08/08","21:10:08",9360.000,"cc",28311.738,6.00,6,0.100,8513.000,0.200,821.000,0.300,24.000,0.500,2.000,1.000,0,5.000,0
"03/08/08","21:10:14",9160.000,"cc",28385.943,6.00,6,0.100,8361.000,0.200,783.000,0.300,14.000,0.500,2.000,1.000,0,5.000,0
"03/08/08","21:10:20",9397.000,"cc",28303.041,6.00,6,0.100,8510.000,0.200,865.000,0.300,20.000,0.500,2.000,1.000,0,5.000,0
"03/08/08","21:10:26",9237.000,"cc",28257.568,6.00,6,0.100,8391.000,0.200,823.000,0.300,21.000,0.500,2.000,1.000,0,5.000,0
"03/08/08","21:10:32",9127.000,"cc",28300.760,6.00,6,0.100,8311.000,0.200,798.000,0.300,17.000,0.500,0,1.000,1.000,5.000,0
"03/08/08","21:10:38",9346.000,"cc",28355.102,6.00,6,0.100,8512.000,0.200,822.000,0.300,11.000,0.500,1.000,1.000,0,5.000,0
"03/08/08","21:10:44",9511.000,"cc",28321.238,6.00,6,0.100,8597.000,0.200,892.000,0.300,20.000,0.500,2.000,1.000,0,5.000,0
"03/08/08","21:10:50",9530.000,"cc",28293.424,6.00,6,0.100,8651.000,0.200,866.000,0.300,12.000,0.500,1.000,1.000,0,5.000,0
"03/08/08","21:10:56",9407.000,"cc",28321.322,6.00,6,0.100,8516.000,0.200,868.000,0.300,21.000,0.500,2.000,1.000,0,5.000,0
"03/08/08","21:11:02",9348.000,"cc",28276.416,6.00,6,0.100,8539.000,0.200,783.000,0.300,23.000,0.500,2.000,1.000,1.000,5.000,0
"03/08/08","21:11:08",9307.000,"cc",28374.842,6.00,6,0.100,8401.000,0.200,884.000,0.300,21.000,0.500,1.000,1.000,0,5.000,0
"03/08/08","21:11:14",9224.000,"cc",28320.301,6.00,6,0.100,8405.000,0.200,794.000,0.300,20.000,0.500,4.000,1.000,1.000,5.000,0
"03/08/08","21:11:20",9359.000,"cc",28306.436,6.00,6,0.100,8510.000,0.200,812.000,0.300,34.000,0.500,3.000,1.000,0,5.000,0
"03/08/08","21:11:26",9593.000,"cc",28311.934,6.00,6,0.100,8722.000,0.200,861.000,0.300,10.000,0.500,0,1.000,0,5.000,0
"03/08/08","21:11:32",9388.000,"cc",28288.971,6.00,6,0.100,8546.000,0.200,830.000,0.300,10.000,0.500,2.000,1.000,0,5.000,0
"03/08/08","21:11:38",9460.000,"cc",28316.568,6.00,6,0.100,8586.000,0.200,851.000,0.300,19.000,0.500,3.000,1.000,1.000,5.000,0
"03/08/08","21:11:44",9500.000,"cc",28255.367,6.00,6,0.100,8648.000,0.200,841.000,0.300,11.000,0.500,0,1.000,0,5.000,0
"03/08/08","21:11:50",9617.000,"cc",28348.883,6.00,6,0.100,8743.000,0.200,857.000,0.300,15.000,0.500,2.000,1.000,0,5.000,0
"03/08/08","21:11:56",9594.000,"cc",28352.787,6.00,6,0.100,8752.000,0.200,823.000,0.300,18.000,0.500,1.000,1.000,0,5.000,0
"03/08/08","21:12:02",9418.000,"cc",28230.102,6.00,6,0.100,8552.000,0.200,840.000,0.300,21.000,0.500,4.000,1.000,1.000,5.000,0
"03/08/08","21:12:08",9306.000,"cc",28343.316,6.00,6,0.100,8475.000,0.200,811.000,0.300,19.000,0.500,1.000,1.000,0,5.000,0
"03/08/08","21:12:14",9319.000,"cc",28347.211,6.00,6,0.100,8544.000,0.200,750.000,0.300,23.000,0.500,2.000,1.000,0,5.000,0
"03/08/08","21:12:20",9351.000,"cc",28302.490,6.00,6,0.100,8464.000,0.200,866.000,0.300,21.000,0.500,0,1.000,0,5.000,0
"03/08/08","21:12:26",9353.000,"cc",28320.125,6.00,6,0.100,8485.000,0.200,852.000,0.300,16.000,0.500,0,1.000,0,5.000,0
"03/08/08","21:12:32",9395.000,"cc",28295.758,6.00,6,0.100,8570.000,0.200,801.000,0.300,22.000,0.500,2.000,1.000,0,5.000,0
"03/08/08","21:12:38",9511.000,"cc",28363.113,6.00,6,0.100,8720.000,0.200,769.000,0.300,20.000,0.500,2.000,1.000,0,5.000,0
"03/08/08","21:12:44",9422.000,"cc",28319.654,6.00,6,0.100,8572.000,0.200,833.000,0.300,14.000,0.500,2.000,1.000,1.000,5.000,0
"03/08/08","21:12:50",9298.000,"cc",28279.449,6.00,6,0.100,8472.000,0.200,801.000,0.300,25.000,0.500,0,1.000,0,5.000,0
"03/08/08","21:12:56",9504.000,"cc",28270.219,6.00,6,0.100,8590.000,0.200,890.000,0.300,19.000,0.500,5.000,1.000,0,5.000,0
"03/08/08","21:13:02",9463.000,"cc",28273.375,6.00,6,0.100,8672.000,0.200,769.000,0.300,20.000,0.500,2.000,1.000,0,5.000,0
"03/08/08","21:13:08",9323.000,"cc",28348.490,6.00,6,0.100,8538.000,0.200,768.000,0.300,15.000,0.500,1.000,1.000,1.000,5.000,0
"03/08/08","21:13:14",9475.000,"cc",28387.914,6.00,6,0.100,8600.000,0.200,851.000,0.300,18.000,0.500,5.000,1.000,1.000,5.000,0
"03/08/08","21:13:20",9553.000,"cc",28292.574,6.00,6,0.100,8691.000,0.200,844.000,0.300,17.000,0.500,1.000,1.000,0,5.000,0
"03/08/08","21:13:26",9506.000,"cc",28310.566,6.00,6,0.100,8696.000,0.200,784.000,0.300,24.000,0.500,1.000,1.000,1.000,5.000,0
"03/08/08","21:13:32",9458.000,"cc",28290.736,6.00,6,0.100,8604.000,0.200,838.000,0.300,16.000,0.500,0,1.000,0,5.000,0
"03/08/08","21:13:38",9371.000,"cc",28285.912,6.00,6,0.100,8588.000,0.200,771.000,0.300,12.000,0.500,0,1.000,0,5.000,0
"03/08/08","21:13:44",9734.000,"cc",28325.213,6.00,6,0.100,8798.000,0.200,923.000,0.300,13.000,0.500,0,1.000,0,5.000,0
"03/08/08","21:13:50",9141.000,"cc",28344.824,6.00,6,0.100,8380.000,0.200,743.000,0.300,15.000,0.500,3.000,1.000,0,5.000,0
"03/08/08","21:13:56",9548.000,"cc",28363.940,6.00,6,0.100,8730.000,0.200,796.000,0.300,20.000,0.500,1.000,1.000,1.000,5.000,0
"03/08/08","21:14:02",9448.000,"cc",28328.699,6.00,6,0.100,8616.000,0.200,817.000,0.300,14.000,0.500,1.000,1.000,0,5.000,0
"03/08/08","21:14:08",9314.000,"cc",28308.033,6.00,6,0.100,8485.000,0.200,816.000,0.300,13.000,0.500,0,1.000,0,5.000,0
"03/08/08","21:14:14",9452.000,"cc",28298.447,6.00,6,0.100,8611.000,0.200,829.000,0.300,10.000,0.500,2.000,1.000,0,5.000,0
"03/08/08","21:14:20",9554.000,"cc",28263.014,6.00,6,0.100,8675.000,0.200,806.000,0.300,52.000,0.500,20.000,1.000,1.000,5.000,0
"03/08/08","21:14:26",9349.000,"cc",28283.650,6.00,6,0.100,8541.000,0.200,796.000,0.300,10.000,0.500,2.000,1.000,0,5.000,0
"03/08/08","21:14:32",9589.000,"cc",28374.912,6.00,6,0.100,8788.000,0.200,788.000,0.300,10.000,0.500,3.000,1.000,0,5.000,0
"03/08/08","21:14:38",9417.000,"cc",28311.479,6.00,6,0.100,8606.000,0.200,798.000,0.300,13.000,0.500,0,1.000,0,5.000,0
"03/08/08","21:14:44",9658.000,"cc",28293.984,6.00,6,0.100,8780.000,0.200,854.000,0.300,21.000,0.500,1.000,1.000,2.000,5.000,0
"03/08/08","21:14:50",9453.000,"cc",28281.922,6.00,6,0.100,8613.000,0.200,821.000,0.300,15.000,0.500,3.000,1.000,1.000,5.000,0
"03/08/08","21:14:56",9585.000,"cc",28371.666,6.00,6,0.100,8796.000,0.200,775.000,0.300,13.000,0.500,1.000,1.000,0,5.000,0
"03/08/08","21:15:02",9636.000,"cc",28322.826,6.00,6,0.100,8802.000,0.200,815.000,0.300,19.000,0.500,0,1.000,0,5.000,0
"03/08/08","21:15:08",9347.000,"cc",28350.147,6.00,6,0.100,8541.000,0.200,790.000,0.300,16.000,0.500,0,1.000,0,5.000,0
"03/08/08","21:15:14",9641.000,"cc",28355.303,6.00,6,0.100,8793.000,0.200,835.000,0.300,13.000,0.500,0,1.000,0,5.000,0
"03/08/08","21:15:20",9463.000,"cc",28287.205,6.00,6,0.100,8652.000,0.200,795.000,0.300,15.000,0.500,1.000,1.000,0,5.000,0
"03/08/08","21:15:26",9409.000,"cc",28273.236,6.00,6,0.100,8599.000,0.200,783.000,0.300,25.000,0.500,2.000,1.000,0,5.000,0
"03/08/08","21:15:32",9762.000,"cc",28314.447,6.00,6,0.100,8949.000,0.200,793.000,0.300,18.000,0.500,1.000,1.000,1.000,5.000,0
"03/08/08","21:15:38",9804.000,"cc",28299.158,6.00,6,0.100,8995.000,0.200,794.000,0.300,15.000,0.500,0,1.000,0,5.000,0
"03/08/08","21:15:44",9577.000,"cc",28316.904,6.00,6,0.100,8742.000,0.200,821.000,0.300,11.000,0.500,3.000,1.000,0,5.000,0
"03/08/08","21:15:50",9668.000,"cc",28375.781,6.00,6,0.100,8856.000,0.200,795.000,0.300,15.000,0.500,2.000,1.000,0,5.000,0
"03/08/08","21:15:56",9731.000,"cc",28245.438,6.00,6,0.100,8947.000,0.200,758.000,0.300,22.000,0.500,3.000,1.000,1.000,5.000,0
"03/08/08","21:16:02",9772.000,"cc",28344.410,6.00,6,0.100,8954.000,0.200,806.000,0.300,12.000,0.500,0,1.000,0,5.000,0
"03/08/08","21:16:08",9570.000,"cc",28323.779,6.00,6,0.100,8790.000,0.200,763.000,0.300,15.000,0.500,1.000,1.000,1.000,5.000,0
"03/08/08","21:16:14",9585.000,"cc",28329.539,6.00,6,0.100,8794.000,0.200,781.000,0.300,10.000,0.500,0,1.000,0,5.000,0
"03/08/08","21:16:20",9737.000,"cc",28366.160,6.00,6,0.100,8926.000,0.200,794.000,0.300,14.000,0.500,3.000,1.000,0,5.000,0
"03/08/08","21:16:26",9475.000,"cc",28311.494,6.00,6,0.100,8728.000,0.200,735.000,0.300,12.000,0.500,0,1.000,0,5.000,0
"03/08/08","21:16:32",9661.000,"cc",28295.238,6.00,6,0.100,8869.000,0.200,788.000,0.300,4.000,0.500,0,1.000,0,5.000,0
"03/08/08","21:16:38",9672.000,"cc",28344.373,6.00,6,0.100,8902.000,0.200,750.000,0.300,18.000,0.500,2.000,1.000,0,5.000,0
"03/08/08","21:16:44",9311.000,"cc",28237.305,6.00,6,0.100,8564.000,0.200,735.000,0.300,11.000,0.500,1.000,1.000,0,5.000,0
"03/08/08","21:16:50",9707.000,"cc",28334.332,6.00,6,0.100,8933.000,0.200,760.000,0.300,12.000,0.500,2.000,1.000,0,5.000,0
"03/08/08","21:16:56",9607.000,"cc",28247.947,6.00,6,0.100,8827.000,0.200,759.000,0.300,18.000,0.500,3.000,1.000,0,5.000,0
"03/08/08","21:17:02",9576.000,"cc",28370.772,6.00,6,0.100,8852.000,0.200,709.000,0.300,15.000,0.500,0,1.000,0,5.000,0
"03/08/08","21:17:08",9607.000,"cc",28330.098,6.00,6,0.100,8865.000,0.200,726.000,0.300,16.000,0.500,0,1.000,0,5.000,0
"03/08/08","21:17:14",9598.000,"cc",28266.850,6.00,6,0.100,8875.000,0.200,717.000,0.300,5.000,0.500,1.000,1.000,0,5.000,0
"03/08/08","21:17:20",9675.000,"cc",28344.248,6.00,6,0.100,8893.000,0.200,764.000,0.300,17.000,0.500,1.000,1.000,0,5.000,0
"03/08/08","21:17:26",9756.000,"cc",28324.674,6.00,6,0.100,8890.000,0.200,847.000,0.300,16.000,0.500,2.000,1.000,1.000,5.000,0
"03/08/08","21:17:32",9801.000,"cc",28345.898,6.00,6,0.100,9032.000,0.200,751.000,0.300,14.000,0.500,4.000,1.000,0,5.000,0
"03/08/08","21:17:38",9721.000,"cc",28301.266,6.00,6,0.100,8892.000,0.200,810.000,0.300,19.000,0.500,0,1.000,0,5.000,0
"03/08/08","21:17:44",9739.000,"cc",28303.949,6.00,6,0.100,8995.000,0.200,728.000,0.300,15.000,0.500,1.000,1.000,0,5.000,0
"03/08/08","21:17:50",9937.000,"cc",28426.697,6.00,6,0.100,9032.000,0.200,891.000,0.300,13.000,0.500,1.000,1.000,0,5.000,0
"03/08/08","21:17:56",9722.000,"cc",28189.750,6.00,6,0.100,8956.000,0.200,752.000,0.300,13.000,0.500,1.000,1.000,0,5.000,0
"03/08/08","21:18:02",9892.000,"cc",28369.686,6.00,6,0.100,9082.000,0.200,803.000,0.300,7.000,0.500,0,1.000,0,5.000,0
"03/08/08","21:18:08",9934.000,"cc",28277.645,6.00,6,0.100,9049.000,0.200,852.000,0.300,22.000,0.500,9.000,1.000,2.000,5.000,0